Location: Long Geng
(2.6167°N, 114.1333°E)
Time: 09:25:35
(UTC+00:00)

Ariane 44LP R/B - Pass Details

Date: 25 September 2021
Orbit: 477 x 17832 km, 3.6° (Epoch: 18 October)

Event Time Altitude Azimuth Distance (km) Brightness Sun altitude
Exits shadow 21:25:06 17° 271° (W) 2,005 5.5 -12.5°
Maximum altitude 21:29:11 86° 360° (N) 1,369 5.3 -11.5°
Drops below altitude 10° 21:50:55 10° 88° (E) 9,047 11.3 -6.1°
Sets 22:08:19 0° 89° (E) 13,820 14.1 -1.7°
